Погода в Суккулове

Россия / Республика Башкортостан     54˚13′55″N   53˚43′59″E
темп.,
°C
ветер,
м/с
пор.,
м/с
влажн.,
%
обл.,
%
осадки,
мм/ч
давл.,
гПа
погр.,
м
17 января, вс
вс1723:00−9˚ююз81692100 0.4 1005761
02:00−7˚ююз91693100 0.6 1003946
05:00−9˚юз91591100 1.3 1003724
08:00−13˚юз81494100 0.5 1004655
11:00−15˚юз81392100 0.9 1007685
14:00−15˚зюз71192100 0.1 1010647
17:00−17˚юз51096100 0.1 1012382
20:00−21˚юз47100100 0.0 1015138
18 января, пн
пн1823:00−21˚юз34100100 0.1 1017103
02:00−23˚ююз2210074 0.0 101820
05:00−24˚ю129941 0.0 101920
08:00−25˚ю111000 0.0 101920
11:00−23˚ю11961 0.0 102020
14:00−18˚с11913 0.0 1019129
17:00−20˚ссв239622 0.0 101923
20:00−21˚св2294100 0.0 101825
19 января, вт
вт1923:00−21˚св2393100 0.0 101751
02:00−19˚св3594100 0.1 1016174
05:00−18˚св4696100 0.5 1015222
08:00−18˚св4897100 1.1 1013242
11:00−18˚ссв4696100 1.7 1012245
14:00−16˚св4696100 1.1 1011257
17:00−16˚ссв3496100 3.2 1010231
20:00−16˚ссв2297100 1.5 1010134
20 января, ср
ср2023:00−16˚с0198100 2.5 101030
02:00−17˚зюз2497100 0.6 1011157
05:00−18˚юз3697100 1.0 1012259
08:00−18˚юз4897100 0.3 1014345
11:00−21˚ююз4797100 0.4 1015273
14:00−20˚ююз4797100 0.2 1017312
17:00−21˚ююз4797100 0.4 1017316
20:00−22˚ююз3598100 0.2 1019174
21 января, чт
чт2123:00−24˚ю239998 0.3 101929
02:00−26˚ю2210092 0.0 102019
05:00−27˚ююз2210092 0.0 102119
08:00−28˚ююз2210057 0.0 102119
11:00−26˚юз239849 0.0 102257
14:00−23˚юз4698100 0.0 1022213
17:00−22˚юз4798100 0.1 1021250
20:00−21˚зюз4898100 0.6 1021273